DELTA 1 DEB, 20349

Orbit data source: Space-Track

DELTA 1 DEB, 20349 is space debris in LEO originally from a launch on Thu, 29 Jul 1976 UTC launched from the Air Force Western Test Range (AFWTR). Debris objects in space refer to the collection of defunct objects orbiting the Earth. Examples of debris include non-operational satellites, rocket bodies, and fragments generated from explosions, collisions, or faulty payload assembly.

Loading next visibility...
Identifier
20349, 1976-077FR
Orbit
LEO
Country
Flag of USUS
Related business
Manufacturer
Unknown
Mission
Spacecraft
Bus & Motor
Unknown
Mass
Unknown
Launch date (UTC)
1976-07-29 (50 years ago)
Launch vehicle
Unknown
Launch site
Air Force Western Test Range (AFWTR)
Object type
Payload
Rocket body
Debris
Shape & HBR
Unknown shape, 0.1 m
Radar Cross Section
Medium (>0.1 m² and <1 m²)

Expand to show TLE details & history
Last TLE update: 21 hours ago

TLE from 21 hours ago
0 DELTA 1 DEB
1 20349U 76077FR  26255.19728745 -.00000482  00000-0 -78633-2 0  9993
2 20349 102.5800 349.7861 0625279  53.2960 339.2277 11.33786544565641
Epoch: 2026-09-12T04:44Z
TLE epoch observation values (Epoch: 2026-09-12T04:44:05.635Z)
Latitude
29.04691°
Longitude
-79.53123°
Altitude
1,509.914 km
Speed
7.315 km/s
True Right ascension
22h 50m 48s
True Declination
28° 54' 54"
Sunlit
Object was in full shadow at epoch
Visualization orbit readout
Latitude
Unknown
Longitude
Unknown
Altitude
Unknown
Speed
Unknown
Apparent Right ascension
Unknown
Apparent Declination
Unknown
Sunlit
N/A
Visualization observer readout
Local Sidereal Time
18:35:38
Azimuth
Unknown
Elevation
Unknown
Doppler factor
Unknown
Orbital elements
Apogee altitude
2,512.587 km
Perigee altitude
1,466.18 km
Semi-major axis
8,367.521 km
Eccentricity
0.06253
Inclination
102.58°
RAAN
349.7861°
Arg. of periapsis
53.296°
True anomaly
336.48794°
Mean anomaly
339.2277°
Eccentric anomaly
337.87861°
Mean motion
2.83562 °/min
Orbital period
126.96 mins
BSTAR
-0.0078633
Loading maneuver chart data...
Computing Atmospheric mass density...
Loading historical data...
Loading historical data...
Loading historical data...
Loading historical data...
Loading historical data...
Loading historical data...
Loading historical data...

Documentation

Showing up to 5 results
|